Lexington Weather

Lexington, Massachusetts, USA

47°F
10/22/2019 2:47am 
  • Lexington Conditions: Mostly cloudy
  • Temperature: 47.1°F / 8.4°CWarmer 1.2°F than last hour.
  • Dew Point: 45.7°FIncreased 1.8°Fsince last hour.
  • Relative Humidity: 95%Increased 2.0% since last hour.
  • Wind: Calm, 10-min avg: Calm, gust: None
  • Barometer: 30.12 in Steady
  • Visibility: 9 miles
  • Rain Today: 0.00 in
  •   

Regional Weather Roundup
for Boston, MA

        
000
ASUS41 KBOX 201910
RWRBOX

REGIONAL WEATHER ROUNDUP
NATIONAL WEATHER SERVICE BOSTON/NORTON MA
300 PM EDT SUN OCT 20 2019

NOTE:  "FAIR" INDICATES FEW OR NO CLOUDS BELOW 12,000 FEET WITH NO 
SIGNIFICANT WEATHER AND/OR OBSTRUCTIONS TO VISIBILITY.

MAZALL-202000-
EASTERN MASSACHUSETTS
  
CITY           SKY/WX    TMP DP  RH WIND       PRES   REMARKS
BOSTON         CLOUDY    58  47  66 E7        30.08R                  
BEVERLY        FAIR      59  41  51 S5        30.07S                  
LAWRENCE       FAIR      60  43  53 S3        30.09R                  
BEDFORD        PTSUNNY   61  40  45 S5        30.06S                  
BLUE HILL      NOT AVBL                                               
NORWOOD        FAIR      63  40  42 NW3       30.06F                  
MARSHFIELD     FAIR      61  50  67 VRB7      30.06F                  
PLYMOUTH       PTSUNNY   60  47  61 SW7       30.07S                  
TAUNTON        CLOUDY    62  47  57 SE7       30.06S                  
NEW BEDFORD    FAIR      60  47  61 S8        30.06S                  
$$

MAZALL-202000-
CAPE COD AND THE ISLANDS
  
CITY           SKY/WX    TMP DP  RH WIND       PRES   REMARKS
FALMOUTH       SUNNY     59  43  55 S8        30.07S                  
HYANNIS        FAIR      59  44  57 SE6       30.06S                  
CHATHAM        NOT AVBL                                               
PROVINCETOWN   FAIR      60  48  64 S7          N/A                   
NANTUCKET      FAIR      57  49  74 SE8       30.07F                  
MARTHAS VNYRD  FAIR      59  46  62 SE5       30.07S                  
$$
 
MAZALL-202000-
CENTRAL AND WESTERN MASSACHUSETTS
  
CITY           SKY/WX    TMP DP  RH WIND       PRES   REMARKS
WORCESTER      FAIR      56  40  55 S8        30.06F                  
FITCHBURG      FAIR      58  39  49 SE7       30.06F                  
ORANGE         FAIR      59  39  47 SW6       30.07R                  
SPRINGFIELD    NOT AVBL                                               
WESTFIELD      LGT RAIN  56  43  61 CALM      30.05F                  
NORTH ADAMS    LGT RAIN  57  39  51 CALM      30.04F                  
PITTSFIELD     CLOUDY    55  40  56 S6        30.03S                  
$$
 
RIZALL-202000-
RHODE ISLAND
  
CITY           SKY/WX    TMP DP  RH WIND       PRES   REMARKS
PROVIDENCE     CLOUDY    60  44  55 SE7       30.07F                  
NEWPORT        FAIR      60  47  61 S5        30.06F                  
BLOCK ISLAND   FAIR      57  49  74 SE6       30.06F                  
SMITHFIELD     FAIR     N/A N/A N/A SE3       30.06F                  
WESTERLY       FAIR      62  50  64 SE6       30.06F                  
$$
 
CTZALL-202000-
CONNECTICUT
  
CITY           SKY/WX    TMP DP  RH WIND       PRES   REMARKS
BRADLEY INTL   LGT RAIN  57  45  64 SW3       30.05F                  
HARTFORD       PTSUNNY   57  46  66 E3        30.05F                  
BRIDGEPORT     CLOUDY    60  52  74 NE6       30.03F                  
DANBURY        LGT RAIN  54  48  80 CALM      30.05F                  
GROTON         PTSUNNY   60  50  69 E6        30.06S                  
NEW HAVEN      CLOUDY    61  51  70 E5        30.04F                  
CHESTER        FAIR      59  48  67 CALM      30.06S                  
MERIDEN        CLOUDY    57  44  62 CALM      30.05F                  
WILLIMANTIC    FAIR      59  45  59 S3        30.06F                  
OXFORD         LGT RAIN  55  50  83 SE5       30.05F                  
$$

MEZ002-015-021-024-NHZ003-005-008-011-012-014-VTZ005-008-202000-
NORTHERN NEW ENGLAND
  
CITY           SKY/WX    TMP DP  RH WIND       PRES   REMARKS
PORTLAND ME    PTSUNNY   54  44  69 NE6       30.09F                  
BANGOR ME      PTSUNNY   57  37  47 CALM      30.07F                  
CONCORD NH     CLOUDY    57  39  51 VRB5      30.06F                  
MANCHESTER NH  PTSUNNY   59  40  49 SW7       30.06S                  
NASHUA NH      PTSUNNY   59  41  51 VRB5      30.07S                  
PORTSMOUTH NH  PTSUNNY   56  44  64 E6        30.06S                  
JAFFREY NH     FAIR      58  38  47 VRB3      30.06S                  
KEENE NH       FAIR      57  40  52 SW3       30.06R                  
BURLINGTON VT  LGT RAIN  55  38  52 S13       30.00S                  
MT. WASHINGTON CLOUDY    36  21  55 SW23        N/A  WCI  24          
$$

NYZ052-076-202000-
EASTERN NEW YORK
  
CITY           SKY/WX    TMP DP  RH WIND       PRES   REMARKS
ALBANY         LGT RAIN  53  43  68 S7        30.05S                  
NEW YORK CITY  LGT RAIN  58  53  84 NE8       30.01F                  
$$
 
ANZALL-202000-
MARINE OBSERVATIONS
  
STATION/POSITION TIME  TEMP    WIND        PRES    VSBY  WAVE
                       AIR SEA DIR/SP/G                  HT/PER
                 (UTC) (F)     (DEG/KT/KT) (MB)    (MI)  (FT/S)
BOSTON BUOY      1850   56 57  100/  4/  6 1017.6R         1/13
BUZZARDS BAY     1800   57     160/  7/  8 1018.8S
NANTUCKET SOUND  1850      57                N/A           0
MASS BAY-STELLWA 1804   56 57  130/  4/  4 1017.8F  1 7/8  1/ 3
ISLE OF SHOALS   1800   53      50/  8/  9 1018.0F
S OF BLOCK IS    1900      60                N/A           1/14
$$

......................KEY.........................
  SKY/WX - SKY CONDITION/PRESENT WEATHER
  TMP    - TEMPERATURE IN FAHRENHEIT
  DWPT   - DEWPOINT IN FAHRENHEIT
  RH     - RELATIVE HUMIDITY IN PERCENT
  WIND   - DIRECTION AND SPEED IN MPH
  PRES   - MEAN SEA LEVEL PRESSURE IN INCHES OF HG
  WCI    - WIND CHILL INDEX
  VSB    - VISIBILITY IN MILES
  HX     - HEAT INDEX
  TC     - TEMPERATURE IN CELSIUS
  VRB    - VARIABLE WIND DIRECTION
  N/A    - NOT AVAILABLE
  
      

Other recent Regional Weather Roundups

Tue Oct 22, 2:10am

Tue Oct 22, 2:00am

Tue Oct 22, 1:10am

Tue Oct 22, 1:00am

Tue Oct 22, 12:10am

Tue Oct 22, 12:00am

Mon Oct 21, 11:10pm

Mon Oct 21, 11:00pm

Mon Oct 21, 10:10pm

Mon Oct 21, 10:01pm

Mon Oct 21, 9:10pm

Mon Oct 21, 9:00pm

Mon Oct 21, 8:10pm

Mon Oct 21, 8:00pm

Mon Oct 21, 7:10pm

Mon Oct 21, 7:01pm

Mon Oct 21, 6:10pm

Mon Oct 21, 6:01pm

Mon Oct 21, 5:10pm

Mon Oct 21, 5:01pm

Mon Oct 21, 4:10pm

Mon Oct 21, 4:00pm

Mon Oct 21, 3:10pm

Mon Oct 21, 3:01pm

Mon Oct 21, 2:10pm

Mon Oct 21, 2:00pm

Mon Oct 21, 1:10pm

Mon Oct 21, 1:01pm

Mon Oct 21, 12:10pm

Mon Oct 21, 12:00pm

Mon Oct 21, 11:10am

Mon Oct 21, 11:00am

Mon Oct 21, 10:10am

Mon Oct 21, 10:00am

Mon Oct 21, 9:10am

Mon Oct 21, 9:00am

Mon Oct 21, 7:10am

Mon Oct 21, 7:00am

Mon Oct 21, 6:10am

Mon Oct 21, 6:00am

Mon Oct 21, 5:10am

Mon Oct 21, 5:00am

Mon Oct 21, 4:10am

Mon Oct 21, 4:00am

Mon Oct 21, 3:10am

Mon Oct 21, 3:00am

Mon Oct 21, 2:10am

Mon Oct 21, 2:01am

Mon Oct 21, 1:10am

Mon Oct 21, 1:00am

Mon Oct 21, 12:10am

Mon Oct 21, 12:00am

Sun Oct 20, 11:10pm

Sun Oct 20, 11:00pm

Sun Oct 20, 10:10pm

Sun Oct 20, 10:00pm

Sun Oct 20, 9:10pm

Sun Oct 20, 9:01pm

Sun Oct 20, 8:10pm

Sun Oct 20, 8:00pm

Sun Oct 20, 7:10pm

Sun Oct 20, 7:01pm

Sun Oct 20, 6:10pm

Sun Oct 20, 6:00pm

Sun Oct 20, 5:10pm

Sun Oct 20, 5:00pm

Sun Oct 20, 4:10pm

Sun Oct 20, 4:00pm

Sun Oct 20, 3:00pm

Sun Oct 20, 2:10pm

Sun Oct 20, 2:01pm

Sun Oct 20, 1:10pm

Sun Oct 20, 1:01pm

Sun Oct 20, 12:10pm

Sun Oct 20, 12:00pm

Sun Oct 20, 11:10am

Sun Oct 20, 11:00am

Sun Oct 20, 10:10am

Sun Oct 20, 10:00am

Sun Oct 20, 9:10am

Sun Oct 20, 9:00am

Sun Oct 20, 8:10am

Sun Oct 20, 8:00am

Sun Oct 20, 7:10am

Sun Oct 20, 7:00am

Sun Oct 20, 6:10am

Sun Oct 20, 6:00am

Sun Oct 20, 5:10am

Sun Oct 20, 5:00am

Sun Oct 20, 4:10am

Sun Oct 20, 4:00am

Sun Oct 20, 3:10am

Sun Oct 20, 3:00am

Sun Oct 20, 2:10am

Sun Oct 20, 2:00am

Sun Oct 20, 1:10am

Sun Oct 20, 1:00am

Sun Oct 20, 12:10am

Sun Oct 20, 12:00am

Sat Oct 19, 11:10pm

Sat Oct 19, 11:00pm

Sat Oct 19, 10:10pm

Sat Oct 19, 10:00pm

Sat Oct 19, 9:10pm

Sat Oct 19, 9:00pm

Sat Oct 19, 8:10pm

Sat Oct 19, 8:00pm

Sat Oct 19, 7:10pm

Sat Oct 19, 7:00pm

Sat Oct 19, 6:10pm

Sat Oct 19, 6:00pm

Sat Oct 19, 5:10pm

Sat Oct 19, 5:00pm

Sat Oct 19, 4:10pm

Sat Oct 19, 4:00pm

Sat Oct 19, 3:10pm

Sat Oct 19, 3:01pm

Sat Oct 19, 2:10pm

Sat Oct 19, 2:00pm

Sat Oct 19, 1:10pm

Sat Oct 19, 1:01pm

Sat Oct 19, 12:10pm

Sat Oct 19, 12:00pm

Sat Oct 19, 11:10am

Sat Oct 19, 11:01am

Sat Oct 19, 10:10am

Sat Oct 19, 10:00am

Sat Oct 19, 9:10am

Sat Oct 19, 9:00am

Sat Oct 19, 8:10am

Sat Oct 19, 8:00am

Sat Oct 19, 7:10am

Sat Oct 19, 7:00am

Sat Oct 19, 6:10am

Sat Oct 19, 6:00am

Sat Oct 19, 5:10am

Sat Oct 19, 5:00am

Sat Oct 19, 4:10am

Sat Oct 19, 4:00am

Sat Oct 19, 3:10am

Sat Oct 19, 3:00am

Meta data:

ID: cc8da54d-376a-4d63-9ae4-338b716edc0f
Link: https://api.weather.gov/products/cc8da54d-376a-4d63-9ae4-338b716edc0f